WX1N Weather Reports


Display with metric or nautical units.
time (UTC)temp
F
wind
direction
speed
MPH
gust
MPH
rain 1hr
in
rain 24hr
in
rain mn
in
humidity
%
barometer
mb
20260902182503 69 0 0.0 0.0 0.00 0.00 0.00 79 1020.1
20260902182004 70 0 0.0 0.0 0.00 0.00 0.00 79 1020.1
20260902181503 69 0 0.0 0.0 0.00 0.00 0.00 79 1020.1
20260902181004 69 0 0.0 0.0 0.00 0.00 0.00 79 1020.1
20260902180503 69 0 0.0 0.0 0.00 0.00 0.00 80 1020.1
20260902180006 69 0 0.0 0.0 0.00 0.00 0.00 79 1020.0
20260902175504 69 0 0.0 0.0 0.00 0.00 0.00 80 1019.9
20260902175004 69 0 0.0 0.0 0.00 0.00 0.00 80 1020.0
20260902174503 69 0 0.0 0.0 0.00 0.00 0.00 80 1020.1
20260902174003 68 0 0.0 0.0 0.00 0.00 0.00 80 1020.0
20260902173503 68 0 0.0 0.0 0.00 0.00 0.00 80 1020.1
20260902173003 68 0 0.0 0.0 0.00 0.00 0.00 80 1020.0
20260902172503 68 0 0.0 0.0 0.00 0.00 0.00 79 1020.3
20260902172004 68 0 0.0 0.0 0.00 0.00 0.00 79 1020.3
20260902171504 68 0 0.0 0.0 0.00 0.00 0.00 79 1020.4
20260902171003 68 0 0.0 0.0 0.00 0.00 0.00 78 1020.4
20260902170503 68 0 0.0 0.0 0.00 0.00 0.00 78 1020.4
20260902170003 68 0 0.0 0.0 0.00 0.00 0.00 79 1020.4
20260902165503 68 0 0.0 0.0 0.00 0.00 0.00 79 1020.4
20260902165003 68 0 0.0 0.0 0.00 0.00 0.00 80 1020.4
20260902164503 68 0 0.0 0.0 0.00 0.00 0.00 80 1020.5
20260902164004 68 0 0.0 0.0 0.00 0.00 0.00 80 1020.5
20260902163504 68 0 0.0 0.0 0.00 0.00 0.00 80 1020.6
20260902163004 69 0 0.0 0.0 0.00 0.00 0.00 80 1020.6
20260902162504 69 0 0.0 0.0 0.00 0.00 0.00 80 1020.5
20260902162004 70 0 0.0 0.0 0.00 0.00 0.00 80 1020.4
20260902161503 70 0 0.0 0.0 0.00 0.00 0.00 80 1020.4
20260902161003 70 0 0.0 0.0 0.00 0.00 0.00 80 1020.5
20260902160503 69 0 0.0 0.0 0.00 0.00 0.00 80 1020.4
20260902160004 69 0 0.0 0.0 0.00 0.00 0.00 79 1020.6
20260902155505 69 0 0.0 0.0 0.00 0.00 0.00 80 1020.9
20260902155008 69 0 0.0 0.0 0.00 0.00 0.00 79 1020.8
20260902154503 69 0 0.0 0.0 0.00 0.00 0.00 79 1020.9
20260902154004 70 0 0.0 0.0 0.00 0.00 0.00 79 1021.0
20260902153006 70 0 0.0 0.0 0.00 0.00 0.00 79 1021.0
20260902152503 70 0 0.0 0.0 0.00 0.00 0.00 78 1021.0
20260902152003 70 0 0.0 0.0 0.00 0.00 0.00 78 1021.1
20260902151504 70 0 0.0 0.0 0.00 0.00 0.00 78 1021.3
20260902151003 70 0 0.0 0.0 0.00 0.00 0.00 77 1021.4
20260902150503 69 0 0.0 0.0 0.00 0.00 0.00 77 1021.4
20260902150003 69 0 0.0 0.0 0.00 0.00 0.00 78 1021.5
20260902145504 69 0 0.0 0.0 0.00 0.00 0.00 75 1021.5
20260902145004 69 0 0.0 0.0 0.00 0.00 0.00 76 1021.4
20260902144503 69 0 0.0 0.0 0.00 0.00 0.00 75 1021.3
20260902144003 69 0 0.0 0.0 0.00 0.00 0.00 73 1021.3
20260902143504 68 0 0.0 0.0 0.00 0.00 0.00 75 1021.2
20260902143003 68 0 0.0 0.0 0.00 0.00 0.00 73 1021.2
20260902142503 68 0 0.0 0.0 0.00 0.00 0.00 70 1021.3
20260902142003 68 0 0.0 0.0 0.00 0.00 0.00 63 1021.2
20260902141503 67 0 0.0 0.0 0.00 0.00 0.00 62 1021.1
20260902141004 67 0 0.0 0.0 0.00 0.00 0.00 54 1021.0
20260902140504 67 0 0.0 0.0 0.00 0.00 0.00 48 1021.0
20260902140004 66 0 0.0 0.0 0.00 0.00 0.00 48 1021.0
20260902135503 66 0 0.0 0.0 0.00 0.00 0.00 43 1021.1
20260902135003 66 0 0.0 0.0 0.00 0.00 0.00 43 1021.0
20260902134503 65 0 0.0 0.0 0.00 0.00 0.00 42 1020.9
20260902134003 65 0 0.0 0.0 0.00 0.00 0.00 40 1020.9
20260902133504 65 0 0.0 0.0 0.00 0.00 0.00 38 1020.8
20260902133003 65 0 0.0 0.0 0.00 0.00 0.00 35 1020.9
20260902132504 65 0 0.0 0.0 0.00 0.00 0.00 33 1020.8
20260902132004 65 0 0.0 0.0 0.00 0.00 0.00 32 1020.7
20260902131503 65 0 0.0 0.0 0.00 0.00 0.00 32 1020.6
20260902131003 65 0 0.0 0.0 0.00 0.00 0.00 32 1020.5
20260902130503 65 0 0.0 0.0 0.00 0.00 0.00 32 1020.5
20260902130003 64 0 0.0 0.0 0.00 0.00 0.00 32 1020.5
20260902125503 64 0 0.0 0.0 0.00 0.00 0.00 33 1020.7
20260902125003 64 0 0.0 0.0 0.00 0.00 0.00 33 1020.7
20260902124504 64 0 0.0 0.0 0.00 0.00 0.00 33 1020.6
20260902124004 64 0 0.0 0.0 0.00 0.00 0.00 33 1020.7
20260902123504 63 0 0.0 0.0 0.00 0.00 0.00 34 1020.6
20260902123004 63 0 0.0 0.0 0.00 0.00 0.00 34 1020.7
20260902122503 63 0 0.0 0.0 0.00 0.00 0.00 34 1020.8
20260902122003 63 0 0.0 0.0 0.00 0.00 0.00 34 1020.8
20260902121503 63 0 0.0 0.0 0.00 0.00 0.00 34 1020.9
20260902121003 63 0 0.0 0.0 0.00 0.00 0.00 34 1020.8
20260902120503 63 0 0.0 0.0 0.00 0.00 0.00 34 1020.8
20260902120004 63 0 0.0 0.0 0.00 0.00 0.00 34 1020.8
20260902115504 63 0 0.0 0.0 0.00 0.00 0.00 34 1020.8
20260902115004 63 0 0.0 0.0 0.00 0.00 0.00 35 1020.8
20260902114504 62 0 0.0 0.0 0.00 0.00 0.00 35 1020.9
20260902114004 62 0 0.0 0.0 0.00 0.00 0.00 35 1020.9
20260902113504 62 0 0.0 0.0 0.00 0.00 0.00 35 1020.9
20260902113004 62 0 0.0 0.0 0.00 0.00 0.00 35 1020.8
20260902112504 62 0 0.0 0.0 0.00 0.00 0.00 35 1020.9
20260902112004 62 0 0.0 0.0 0.00 0.00 0.00 35 1020.9
20260902111503 62 0 0.0 0.0 0.00 0.00 0.00 36 1020.9
20260902111003 62 0 0.0 0.0 0.00 0.00 0.00 36 1021.0
20260902110503 62 0 0.0 0.0 0.00 0.00 0.00 36 1021.0
20260902110005 62 0 0.0 0.0 0.00 0.00 0.00 36 1020.9
20260902105503 62 0 0.0 0.0 0.00 0.00 0.00 36 1020.9
20260902105003 62 0 0.0 0.0 0.00 0.00 0.00 36 1020.8
20260902104504 62 0 0.0 0.0 0.00 0.00 0.00 36 1020.8
20260902104004 62 0 0.0 0.0 0.00 0.00 0.00 36 1020.6
20260902103504 62 0 0.0 0.0 0.00 0.00 0.00 36 1020.6
20260902103004 62 0 0.0 0.0 0.00 0.00 0.00 36 1020.7
20260902102503 62 0 0.0 0.0 0.00 0.00 0.00 36 1020.6
20260902102003 62 0 0.0 0.0 0.00 0.00 0.00 36 1020.6
20260902101503 62 0 0.0 0.0 0.00 0.00 0.00 36 1020.4
20260902101003 62 0 0.0 0.0 0.00 0.00 0.00 36 1020.3
20260902100503 62 0 0.0 0.0 0.00 0.00 0.00 36 1020.3
20260902100004 62 0 0.0 0.0 0.00 0.00 0.00 36 1020.3
20260902095504 62 0 0.0 0.0 0.00 0.00 0.00 36 1020.3
20260902095004 62 0 0.0 0.0 0.00 0.00 0.00 36 1020.4
20260902094504 62 0 0.0 0.0 0.00 0.00 0.00 36 1020.4
20260902094004 62 0 0.0 0.0 0.00 0.00 0.00 36 1020.3
20260902093503 62 0 0.0 0.0 0.00 0.00 0.00 36 1020.3
20260902093003 62 0 0.0 0.0 0.00 0.00 0.00 36 1020.2
20260902092503 62 0 0.0 0.0 0.00 0.00 0.00 36 1020.2
20260902092003 62 0 0.0 0.0 0.00 0.00 0.00 36 1020.3
20260902091504 62 0 0.0 0.0 0.00 0.00 0.00 36 1020.2
20260902091004 62 0 0.0 0.0 0.00 0.00 0.00 36 1020.2
20260902090504 62 0 0.0 0.0 0.00 0.00 0.00 36 1020.1
20260902090004 62 0 0.0 0.0 0.00 0.00 0.00 36 1019.8
20260902085504 62 0 0.0 0.0 0.00 0.00 0.00 36 1019.8
20260902085003 62 0 0.0 0.0 0.00 0.00 0.00 36 1019.9
20260902084503 62 0 0.0 0.0 0.00 0.00 0.00 36 1019.9
20260902084003 62 0 0.0 0.0 0.00 0.00 0.00 36 1020.0
20260902083004 62 0 0.0 0.0 0.00 0.00 0.00 36 1020.0
20260902082504 62 0 0.0 0.0 0.00 0.00 0.00 36 1020.0
20260902082004 62 0 0.0 0.0 0.00 0.00 0.00 37 1019.9
20260902081504 62 0 0.0 0.0 0.00 0.00 0.00 37 1020.0
20260902081004 62 0 0.0 0.0 0.00 0.00 0.00 37 1020.1
20260902080504 62 0 0.0 0.0 0.00 0.00 0.00 37 1020.0
20260902080003 62 0 0.0 0.0 0.00 0.00 0.00 37 1019.9
20260902075503 62 0 0.0 0.0 0.00 0.00 0.00 37 1020.0
20260902075003 62 0 0.0 0.0 0.00 0.00 0.00 37 1020.1
20260902074503 62 0 0.0 0.0 0.00 0.00 0.00 37 1020.0
20260902074004 62 0 0.0 0.0 0.00 0.00 0.00 37 1020.0
20260902073504 62 0 0.0 0.0 0.00 0.00 0.00 37 1019.9
20260902073004 62 0 0.0 0.0 0.00 0.00 0.00 37 1019.8
20260902072504 62 0 0.0 0.0 0.00 0.00 0.00 37 1019.8
20260902072004 62 0 0.0 0.0 0.00 0.00 0.00 37 1019.7
20260902071504 62 0 0.0 0.0 0.00 0.00 0.00 37 1019.8
20260902071003 62 0 0.0 0.0 0.00 0.00 0.00 37 1019.9
20260902070504 62 0 0.0 0.0 0.00 0.00 0.00 37 1020.1
20260902070004 62 0 0.0 0.0 0.00 0.00 0.00 37 1020.2
20260902065503 62 0 0.0 0.0 0.00 0.00 0.00 37 1020.3
20260902065003 62 0 0.0 0.0 0.00 0.00 0.00 37 1020.3
20260902064504 63 0 0.0 0.0 0.00 0.00 0.00 37 1020.3
20260902064004 63 0 0.0 0.0 0.00 0.00 0.00 37 1020.2
20260902063504 63 0 0.0 0.0 0.00 0.00 0.00 37 1020.1
20260902063004 63 0 0.0 0.0 0.00 0.00 0.00 37 1020.0
20260902062504 63 0 0.0 0.0 0.00 0.00 0.00 37 1019.9
20260902062003 63 0 0.0 0.0 0.00 0.00 0.00 37 1020.0
20260902061503 63 0 0.0 0.0 0.00 0.00 0.00 37 1019.9
20260902061003 63 0 0.0 0.0 0.00 0.00 0.00 37 1019.9
20260902060504 63 0 0.0 0.0 0.00 0.00 0.00 38 1019.8
20260902060004 63 0 0.0 0.0 0.00 0.00 0.00 38 1019.8
20260902055504 63 0 0.0 0.0 0.00 0.00 0.00 38 1019.8
20260902055004 62 0 0.0 0.0 0.00 0.00 0.00 38 1019.8
20260902054503 63 0 0.0 0.0 0.00 0.00 0.00 38 1019.8
20260902054003 63 0 0.0 0.0 0.00 0.00 0.00 38 1019.8
20260902053503 63 0 0.0 0.0 0.00 0.00 0.00 38 1019.8
20260902053004 63 0 0.0 0.0 0.00 0.00 0.00 38 1019.6
20260902052505 63 0 0.0 0.0 0.00 0.00 0.00 38 1019.5
20260902052003 63 0 0.0 0.0 0.00 0.00 0.00 38 1019.4
20260902051504 63 0 0.0 0.0 0.00 0.00 0.00 38 1019.2
20260902051004 63 0 0.0 0.0 0.00 0.00 0.00 38 1019.2
20260902050504 63 0 0.0 0.0 0.00 0.00 0.00 38 1019.2
20260902050007 63 0 0.0 0.0 0.00 0.00 0.00 38 1019.1
20260902045504 63 0 0.0 0.0 0.00 0.00 0.00 38 1019.0
20260902045003 63 0 0.0 0.0 0.00 0.00 0.00 38 1019.1
20260902044503 63 0 0.0 0.0 0.00 0.00 0.00 38 1019.0
20260902044003 63 0 0.0 0.0 0.00 0.00 0.00 38 1019.0
20260902043504 63 0 0.0 0.0 0.00 0.00 0.00 38 1019.0
20260902043003 63 0 0.0 0.0 0.00 0.00 0.00 39 1018.9
20260902042503 63 0 0.0 0.0 0.00 0.00 0.00 39 1018.9
20260902042002 63 0 0.0 0.0 0.00 0.00 0.00 39 1018.8
20260902041502 63 0 0.0 0.0 0.00 0.00 0.00 39 1018.8
20260902041002 63 0 0.0 0.0 0.00 0.00 0.00 39 1018.7
20260902040502 63 0 0.0 0.0 0.00 0.00 0.00 39 1018.5
20260902040002 63 0 0.0 0.0 0.00 0.00 0.00 39 1018.6
20260902035502 63 0 0.0 0.0 0.00 0.00 0.00 39 1018.5
20260902035003 63 0 0.0 0.0 0.00 0.00 0.00 40 1018.5
20260902034503 63 0 0.0 0.0 0.00 0.00 0.00 40 1018.6
20260902034002 63 0 0.0 0.0 0.00 0.00 0.00 40 1018.6
20260902033503 64 0 0.0 0.0 0.00 0.00 0.00 39 1018.6
20260902033003 64 0 0.0 0.0 0.00 0.00 0.00 39 1018.6
20260902032503 64 0 0.0 0.0 0.00 0.00 0.00 39 1018.6
20260902032002 64 0 0.0 0.0 0.00 0.00 0.00 39 1018.7
20260902031502 64 0 0.0 0.0 0.00 0.00 0.00 39 1018.7
20260902031002 64 0 0.0 0.0 0.00 0.00 0.00 39 1018.8
20260902030502 64 0 0.0 0.0 0.00 0.00 0.00 39 1018.8
20260902030002 64 0 0.0 0.0 0.00 0.00 0.00 39 1018.8
20260902025502 64 0 0.0 0.0 0.00 0.00 0.00 39 1018.7
20260902025002 64 0 0.0 0.0 0.00 0.00 0.00 40 1018.8
20260902024502 64 0 0.0 0.0 0.00 0.00 0.00 40 1018.6
20260902024003 64 0 0.0 0.0 0.00 0.00 0.00 40 1018.5
20260902023503 64 0 0.0 0.0 0.00 0.00 0.00 40 1018.4
20260902023003 64 0 0.0 0.0 0.00 0.00 0.00 40 1018.4
20260902022503 64 0 0.0 0.0 0.00 0.00 0.00 40 1018.3
20260902022002 64 0 0.0 0.0 0.00 0.00 0.00 40 1018.1
20260902021502 64 0 0.0 0.0 0.00 0.00 0.00 41 1018.1
20260902021002 64 0 0.0 0.0 0.00 0.00 0.00 41 1018.3
20260902020502 64 0 0.0 0.0 0.00 0.00 0.00 41 1018.3
20260902020002 64 0 0.0 0.0 0.00 0.00 0.00 41 1018.3
20260902015503 64 0 0.0 0.0 0.00 0.00 0.00 41 1018.3
20260902015002 64 0 0.0 0.0 0.00 0.00 0.00 41 1018.4
20260902014502 64 0 0.0 0.0 0.00 0.00 0.00 41 1018.3
20260902014002 64 0 0.0 0.0 0.00 0.00 0.00 41 1018.2
20260902013502 65 0 0.0 0.0 0.00 0.00 0.00 41 1018.2
20260902013003 65 0 0.0 0.0 0.00 0.00 0.00 41 1018.2
20260902012503 65 0 0.0 0.0 0.00 0.00 0.00 40 1018.2
20260902012003 65 0 0.0 0.0 0.00 0.00 0.00 40 1018.3
20260902011503 65 0 0.0 0.0 0.00 0.00 0.00 39 1018.3
20260902011003 65 0 0.0 0.0 0.00 0.00 0.00 39 1018.3
20260902010502 65 0 0.0 0.0 0.00 0.00 0.00 39 1018.3
20260902010002 65 0 0.0 0.0 0.00 0.00 0.00 40 1018.3
20260902005503 64 0 0.0 0.0 0.00 0.00 0.00 41 1018.3
20260902005003 64 0 0.0 0.0 0.00 0.00 0.00 42 1018.2
20260902004503 64 0 0.0 0.0 0.00 0.00 0.00 42 1018.2
20260902004002 64 0 0.0 0.0 0.00 0.00 0.00 42 1018.2
20260902003503 64 0 0.0 0.0 0.00 0.00 0.00 42 1018.1
20260902003003 64 0 0.0 0.0 0.00 0.00 0.00 43 1017.9
20260902002503 64 0 0.0 0.0 0.00 0.00 0.00 43 1017.9
20260902002002 64 0 0.0 0.0 0.00 0.00 0.00 43 1017.8
20260902001503 64 0 0.0 0.0 0.00 0.00 0.00 44 1017.7
20260902001002 65 0 0.0 0.0 0.00 0.00 0.00 44 1017.6
20260902000002 65 0 0.0 0.0 0.00 0.00 0.00 44 1017.4
20260901235502 65 0 0.0 0.0 0.00 0.00 0.00 44 1017.4
20260901235003 65 0 0.0 0.0 0.00 0.00 0.00 44 1017.4
20260901234503 65 0 0.0 0.0 0.00 0.00 0.00 44 1017.5
20260901234002 65 0 0.0 0.0 0.00 0.00 0.00 44 1017.4
20260901233502 65 0 0.0 0.0 0.00 0.00 0.00 43 1017.3
20260901233003 65 0 0.0 0.0 0.00 0.00 0.00 44 1017.3
20260901232503 65 0 0.0 0.0 0.00 0.00 0.00 44 1017.3
20260901232003 65 0 0.0 0.0 0.00 0.00 0.00 45 1017.3
20260901231503 65 0 0.0 0.0 0.00 0.00 0.00 46 1017.4
20260901231002 65 0 0.0 0.0 0.00 0.00 0.00 46 1017.4
20260901230502 65 0 0.0 0.0 0.00 0.00 0.00 46 1017.4
20260901230002 65 0 0.0 0.0 0.00 0.00 0.00 47 1017.3
20260901225503 65 0 0.0 0.0 0.00 0.00 0.00 47 1017.3
20260901225002 65 0 0.0 0.0 0.00 0.00 0.00 47 1017.3
20260901224503 66 0 0.0 0.0 0.00 0.00 0.00 48 1017.3
20260901224003 66 0 0.0 0.0 0.00 0.00 0.00 48 1017.4
20260901223503 66 0 0.0 0.0 0.00 0.00 0.00 48 1017.4
20260901223003 66 0 0.0 0.0 0.00 0.00 0.00 48 1017.4
20260901222503 66 0 0.0 0.0 0.00 0.00 0.00 48 1017.5
20260901222002 66 0 0.0 0.0 0.00 0.00 0.00 48 1017.4
20260901221503 66 0 0.0 0.0 0.00 0.00 0.00 49 1017.4
20260901221003 66 0 0.0 0.0 0.00 0.00 0.00 50 1017.4
20260901220502 66 0 0.0 0.0 0.00 0.00 0.00 50 1017.3
20260901220003 66 0 0.0 0.0 0.00 0.00 0.00 49 1017.3
20260901215502 66 0 0.0 0.0 0.00 0.00 0.00 48 1017.3
20260901215003 66 0 0.0 0.0 0.00 0.00 0.00 49 1017.1
20260901214503 66 0 0.0 0.0 0.00 0.00 0.00 49 1017.1
20260901214003 66 0 0.0 0.0 0.00 0.00 0.00 50 1017.1
20260901213503 66 0 0.0 0.0 0.00 0.00 0.00 52 1017.0
20260901213002 66 0 0.0 0.0 0.00 0.00 0.00 53 1017.1
20260901212502 66 0 0.0 0.0 0.00 0.00 0.00 52 1017.0
20260901212002 66 0 0.0 0.0 0.00 0.00 0.00 51 1016.9
20260901211503 66 0 0.0 0.0 0.00 0.00 0.00 52 1016.9
20260901211003 66 0 0.0 0.0 0.00 0.00 0.00 52 1016.8
20260901210503 66 0 0.0 0.0 0.00 0.00 0.00 51 1016.9
20260901210003 66 0 0.0 0.0 0.00 0.00 0.00 50 1017.0
20260901205503 66 0 0.0 0.0 0.00 0.00 0.00 51 1016.9
20260901205003 66 0 0.0 0.0 0.00 0.00 0.00 51 1016.8
20260901204503 66 0 0.0 0.0 0.00 0.00 0.00 51 1016.8
20260901204002 66 0 0.0 0.0 0.00 0.00 0.00 51 1016.8
20260901203502 66 0 0.0 0.0 0.00 0.00 0.00 50 1016.7
20260901203002 66 0 0.0 0.0 0.00 0.00 0.00 51 1016.6
20260901202502 66 0 0.0 0.0 0.00 0.00 0.00 52 1016.6
20260901202003 66 0 0.0 0.0 0.00 0.00 0.00 51 1016.7
20260901201503 66 0 0.0 0.0 0.00 0.00 0.00 51 1016.5
20260901201003 66 0 0.0 0.0 0.00 0.00 0.00 51 1016.6
20260901200503 66 0 0.0 0.0 0.00 0.00 0.00 50 1016.6
20260901200003 66 0 0.0 0.0 0.00 0.00 0.00 50 1016.7
20260901195503 66 0 0.0 0.0 0.00 0.00 0.00 52 1016.6
20260901195003 66 0 0.0 0.0 0.00 0.00 0.00 54 1016.6
20260901194503 66 0 0.0 0.0 0.00 0.00 0.00 55 1016.6
20260901194003 66 0 0.0 0.0 0.00 0.00 0.00 54 1016.6
20260901193503 66 0 0.0 0.0 0.00 0.00 0.00 53 1016.6
20260901193003 66 0 0.0 0.0 0.00 0.00 0.00 52 1016.7
20260901192503 66 0 0.0 0.0 0.00 0.00 0.00 52 1016.6
20260901192002 66 0 0.0 0.0 0.00 0.00 0.00 51 1016.7
20260901191502 66 0 0.0 0.0 0.00 0.00 0.00 50 1016.7
20260901191003 66 0 0.0 0.0 0.00 0.00 0.00 49 1016.7
20260901190503 66 0 0.0 0.0 0.00 0.00 0.00 45 1016.8
20260901190003 66 0 0.0 0.0 0.00 0.00 0.00 46 1016.8
20260901185503 65 0 0.0 0.0 0.00 0.00 0.00 48 1016.9
20260901185003 65 0 0.0 0.0 0.00 0.00 0.00 50 1016.9
20260901184503 65 0 0.0 0.0 0.00 0.00 0.00 51 1017.0
20260901184003 65 0 0.0 0.0 0.00 0.00 0.00 54 1017.0
20260901183504 65 0 0.0 0.0 0.00 0.00 0.00 55 1017.0
20260901183002 65 0 0.0 0.0 0.00 0.00 0.00 55 1017.0